Terug naar catalogus

COSMOS 2491 DEB

LostPO
NORAD 57549·DEBRIS·🇷🇺 Russia

Gelanceerd Dec 25, 2013 vanaf Plesetsk Cosmodrome

Loading…

Volgende Passages (komende 24 uur)

TLE

VerouderdSource: Space-Track

Epoch: Jul 23, 2026, 09:13 UTC

1 57549U 13076AL  26204.38440998  .00096767  00000-0  41155+0 0  9996
2 57549  82.5075  70.8960 0205346   1.7427 358.4342 12.75412033148673

Volg COSMOS 2491 DEB in realtime met AllMySat

Download on the App Store